Lytton, British Columbia

12:21 PM PST on December 14, 2017 (GMT -0800)
Lytton

Weather History for CWLY - October, 2012

Change the Weather History Date:

Saturday, October 27, 2012

  Actual Average Record
Temperature  
Mean Temperature 42 °F -  
Max Temperature 46 °F 42 °F 59 °F (2003)
Min Temperature 38 °F 32 °F 26 °F (2008)
Degree Days  
Heating Degree Days 23    
Moisture  
Dew Point 36 °F    
Average Humidity 80    
Maximum Humidity 93    
Minimum Humidity 60    
Precipitation  
Precipitation 0.00 in 0.08 in - ()
Sea Level Pressure  
Sea Level Pressure 29.92 in    
Wind  
Wind Speed 1 mph ()    
Max Wind Speed 12 mph    
Max Gust Speed 17 mph    
Visibility 9.0 miles    
Events      
Averages and records for this station are not official NWS values.
T = Trace of Precipitation, MM = Missing Value Source: Averaged Metar Reports

Daily Weather History Graph

Daily Weather History Graph

Search for Another Location

Airport or City:

Trip Planner

Search our weather history database for the weather conditions in past years. The results will help you decide how hot, cold, wet, or windy it might be!

Date:

Astronomy

Oct. 27, 2012 Rise Set
Actual Time 7:49 AM PDT 5:50 PM PDT
Civil Twilight 7:15 AM PDT 6:23 PM PDT
Nautical Twilight 6:37 AM PDT 7:01 PM PDT
Astronomical Twilight 5:59 AM PDT 7:39 PM PDT
Moon 4:44 PM PDT (10/27) 5:41 AM PDT (10/27)
Length of Visible Light 11h 08m
Length of Day
10h 00m
Waxing Gibbous, 96% of the Moon is Illuminated
Oct 27
Waxing Gibbous
Oct 29
Full
Nov 6
Last Quarter
Nov 13
New
Nov 20
First Quarter

Hourly Weather History & Observations

Time (PDT) Temp. Windchill Dew Point Humidity Pressure Visibility Wind Dir Wind Speed Gust Speed Precip Events Conditions
12:00 AM 41.0 °F - 35.6 °F 81% 30.04 in 9.0 mi Calm Calm - N/A   Overcast
1:00 AM 41.0 °F - 35.6 °F 81% 30.04 in 9.0 mi Calm Calm - N/A   Overcast
2:00 AM 40 °F - 35 °F 77% 30.04 in 9 mi Calm Calm - -   Overcast
2:00 AM 39.2 °F - 35.6 °F 87% 30.04 in 9.0 mi Calm Calm - N/A   Overcast
3:00 AM 39.2 °F 37.0 °F 35.6 °F 87% 30.04 in 9.0 mi NNE 3.5 mph - N/A   Overcast
4:00 AM 39.2 °F - 35.6 °F 87% 30.04 in 9.0 mi Calm Calm - N/A   Overcast
5:00 AM 40 °F - 35 °F 75% 30.04 in 9 mi Calm Calm - -   Overcast
5:00 AM 39.2 °F - 35.6 °F 87% 30.04 in 9.0 mi Calm Calm - N/A   Overcast
6:00 AM 39.2 °F - 33.8 °F 81% 30.04 in 9.0 mi Calm Calm - N/A   Overcast
7:00 AM 39.2 °F - 33.8 °F 81% 30.02 in 9.0 mi Calm Calm - N/A   Overcast
7:24 AM 39.2 °F - 33.8 °F 81% 29.99 in 9.0 mi Calm Calm - N/A   Overcast
7:32 AM 39.2 °F - 33.8 °F 81% 29.99 in 9.0 mi Calm Calm - N/A   Overcast
7:40 AM 39.2 °F - 33.8 °F 81% 29.99 in 9.0 mi Calm Calm - N/A   Overcast
8:00 AM 39.2 °F - 33.8 °F 81% 30.01 in 9.0 mi Calm Calm - N/A   Overcast
8:07 AM 39.2 °F - 33.8 °F 81% 29.99 in 9.0 mi Calm Calm - N/A   Overcast
9:00 AM 39.2 °F - 33.8 °F 81% 30.00 in 9.0 mi Calm Calm - N/A   Overcast
9:16 AM 39.2 °F - 33.8 °F 81% 29.97 in 9.0 mi Calm Calm - N/A   Overcast
9:34 AM 39.2 °F - 33.8 °F 81% 29.97 in 9.0 mi Calm Calm - N/A   Overcast
9:47 AM 41.0 °F - 33.8 °F 76% 29.96 in 9.0 mi Calm Calm - N/A   Mostly Cloudy
10:00 AM 41.0 °F - 33.8 °F 76% 29.99 in 9.0 mi Calm Calm - N/A   Overcast
10:50 AM 41.0 °F - 33.8 °F 76% 29.96 in 9.0 mi South 2.3 mph - N/A   Overcast
11:00 AM 40 °F - 34 °F 73% 29.99 in 9 mi Calm Calm - -   Overcast
11:00 AM 41.0 °F - 33.8 °F 76% 29.99 in 9.0 mi Calm Calm - N/A   Overcast
11:08 AM 41.0 °F - 33.8 °F 76% 29.96 in 9.0 mi Calm Calm - N/A   Mostly Cloudy
11:37 AM 41.0 °F - 35.6 °F 81% 29.96 in 9.0 mi Calm Calm - N/A   Mostly Cloudy
12:00 PM 41.0 °F - 35.6 °F 81% 29.98 in 9.0 mi Calm Calm - N/A   Mostly Cloudy
1:00 PM 41.0 °F - 37.4 °F 87% 29.95 in 9.0 mi Calm Calm - N/A   Mostly Cloudy
1:08 PM 41.0 °F - 37.4 °F 87% 29.92 in 9.0 mi Calm Calm - N/A   Mostly Cloudy
1:18 PM 41.0 °F - 39.2 °F 93% 29.91 in 9.0 mi Calm Calm - N/A   Overcast
2:00 PM 42 °F - 38 °F 83% 29.91 in 9 mi North 2.3 mph - -   Overcast
2:00 PM 42.8 °F 41.1 °F 39.2 °F 87% 29.91 in 9.0 mi North 3.5 mph - N/A   Overcast
2:12 PM 42.8 °F - 39.2 °F 87% 29.87 in 9.0 mi Calm Calm - N/A   Overcast
2:13 PM 42.8 °F - 39.2 °F 87% 29.87 in 9.0 mi Calm Calm - N/A   Overcast
2:18 PM 42.8 °F - 39.2 °F 87% 29.87 in 9.0 mi Calm Calm - N/A   Overcast
2:23 PM 42.8 °F - 37.4 °F 81% 29.87 in 9.0 mi Calm Calm - N/A   Overcast
2:40 PM 42.8 °F - 39.2 °F 87% 29.86 in 9.0 mi Calm Calm - N/A   Overcast
2:42 PM 42.8 °F - 37.4 °F 81% 29.86 in 9.0 mi Calm Calm - N/A   Overcast
2:47 PM 42.8 °F - 39.2 °F 87% 29.86 in 9.0 mi Calm Calm - N/A   Overcast
3:00 PM 42.8 °F - 39.2 °F 87% 29.87 in 9.0 mi Calm Calm - N/A   Overcast
4:00 PM 46.4 °F 44.3 °F 39.2 °F 76% 29.83 in 9.0 mi ENE 4.6 mph - N/A   Overcast
5:00 PM 46 °F - 39 °F 70% 29.80 in 9 mi South 11.5 mph - -   Overcast
5:00 PM 46.4 °F 41.5 °F 39.2 °F 76% 29.80 in 9.0 mi South 10.4 mph 17.3 mph N/A   Overcast
6:00 PM 46.4 °F 43.5 °F 37.4 °F 71% 29.79 in 9.0 mi SSE 5.8 mph - N/A   Overcast
7:00 PM 44.6 °F 43.1 °F 37.4 °F 76% 29.78 in 9.0 mi SSE 3.5 mph - N/A   Mostly Cloudy
7:17 PM 46.4 °F 44.3 °F 39.2 °F 76% 29.75 in 9.0 mi SSE 4.6 mph - N/A   Scattered Clouds
7:33 PM 46.4 °F 42.4 °F 39.2 °F 76% 29.74 in 9.0 mi SSE 8.1 mph - N/A   Mostly Cloudy
8:00 PM 45 °F - 36 °F 60% 29.76 in 9 mi Calm Calm - -  
8:00 PM 44.6 °F - 35.6 °F 71% 29.76 in 9.0 mi WNW 2.3 mph - N/A   Mostly Cloudy
9:00 PM 44.6 °F 42.2 °F 35.6 °F 71% 29.74 in 9.0 mi North 4.6 mph - N/A   Overcast
10:00 PM 44.6 °F 40.7 °F 37.4 °F 76% 29.75 in 9.0 mi North 6.9 mph - N/A   Overcast
11:00 PM 43 °F - 36 °F 69% 29.75 in 9 mi Calm Calm - -   Overcast